Skip Page Navigation
NASA JPL Caltech
NASA Logo - Jet Propulsion Laboratory + View the NASA Portal
+ Center for Near-Earth Object Studies
JPL Home Earth Solar System Stars & Galaxies Technology
JPL Solar System Dynamics
BODIES ORBITS EPHEMERIDES TOOLS PHYSICAL DATA DISCOVERY FAQ SITE MAP
JPL Small-Body Database Browser
Search: [ help ]  
(2019 GM1)
Classification: Apollo [NEO]          SPK-ID: 3840791
Ephemeris | Orbit Diagram | Orbital Elements | Mission Design | Physical Parameters | Close-Approach Data ]

[ hide orbit diagram ]

For accurate long-term ephemerides, please instead use our Horizons system.This orbit viewer was implemented using two-body methods, and hence should not be used for determining accurate long-term trajectories (over several years or decades) or planetary encounter circumstances.


Orbital Elements at Epoch 2459200.5 (2020-Dec-17.0) TDB
Reference: JPL 3 (heliocentric ecliptic J2000)
 Element Value Uncertainty (1-sigma)   Units 
e .07106020948953085 5.5758e-06  
a 1.002376420341897 5.4431e-08 au
q .9311473419250355 5.5406e-06 au
i 6.75317327185778 0.00016416 deg
node 187.94855330936 0.00015967 deg
peri 110.3763274653649 0.00025939 deg
M 155.7743851631352 0.00091624 deg
tp 2459041.887198950620
(2020-Jul-11.38719895)
0.0009456 TDB
period 366.559677433348
1.00
2.9857e-05
8.174e-08
d
yr
n .9821047490021846 7.9995e-08 deg/d
Q 1.073605498758758 5.8299e-08 au
  Orbit Determination Parameters
   # obs. used (total)      32  
   data-arc span      364 days  
   first obs. used      2019-04-03  
   last obs. used      2020-04-01  
   planetary ephem.      DE431  
   SB-pert. ephem.      SB431-N16  
   condition code      1  
   norm. resid. RMS      .25691  
   source      ORB  
   producer      Otto Matic  
   solution date      2020-Apr-02 06:04:34  

Additional Information
 Earth MOID = .0189041 au 
 Jupiter MOID = 3.96282 au 
 T_jup = 6.061 
[ show covariance matrix ]

Ephemeris | Orbit Diagram | Orbital Elements | Mission Design | Physical Parameters | Close-Approach Data ]

Physical Parameter Table
Parameter Symbol Value Units Sigma Reference Notes
absolute magnitude H 27.1   .6466 MPO545116 autocmod 2.6q

[ show close-approach data ]
Ephemeris | Orbit Diagram | Orbital Elements | Mission Design | Physical Parameters | Close-Approach Data ]
ABOUT SSD CREDITS/AWARDS PRIVACY/COPYRIGHT GLOSSARY LINKS
FirstGov 2021-Mar-05 02:10 UT
(server date/time)  
NASA Home Page
Site Manager:   Ryan S. Park
Webmaster  Alan B. Chamberlin